Flag for U.S.A. Weather past 2 weeks in Glendale, California, U.S.A.

Now
67 °F

Sunny.


Feels Like: 67 °F
Forecast: 55 / 72 °F
Wind: 9 mph from South

Location: Burbank-Glendale-Pasadena Airport

Current Time: May 4, 2015 at 2:09:08 PM

Latest Report: May 4, 2015 at 12:53 PM


Visibility: 10 mi

Pressure: 29.93 "Hg

Humidity: 53%

Dew point: 49 °F

Location of GlendaleLocation

Historic Weather in Glendale — Graph

°F

Glendale temperature yesterday

Maximum temperature yesterday: 74 °F (at 12:53 PM)
Minimum temperature yesterday: 56 °F (at 5:53 AM)
Average temperature yesterday: 64 °F

Past Weeks' High & Low Weather Summary

 TemperatureHumidityPressure
High93 °F (Apr 29, 3:53 PM)87% (Apr 25, 2:53 PM)29.99 "Hg (Apr 25, 2:53 PM)
Low53 °F (Apr 23, 4:53 AM)9% (Apr 27, 11:53 AM)29.76 "Hg (May 2, 5:53 PM)
Average67 °F48%29.86 "Hg
* Reported Apr 19 12:53 PM — May 4 12:53 PM, Glendale, Weather by CustomWeather, © 2015

Note: Actual official high and low records may vary slightly from our data, if they occured in-between our weather recording intervals... More about our weather records

Advertising

Glendale weather history for previous 24 hours

 ConditionsComfort  
Time TempWeatherWind HumidityBarometerVisibility
12:53 PM
Mon, May 4
67 °FSunny.9 mph53%29.93 "Hg10 mi
11:53 AM64 °FSunny.7 mph58%29.94 "Hg10 mi
10:53 AM63 °FPartly sunny.9 mph58%29.94 "Hg10 mi
9:53 AM60 °FOvercast.9 mph67%29.93 "Hg10 mi
8:53 AM58 °FOvercast.7 mph70%29.93 "Hg10 mi
8:00 AM57 °FOvercast.No wind72%29.95 "Hg10 mi
6:53 AM56 °FPassing clouds.No wind72%29.90 "Hg10 mi
5:53 AM54 °FClear.No wind74%29.89 "Hg10 mi
4:53 AM56 °FClear.No wind77%29.88 "Hg10 mi
3:53 AM56 °FPassing clouds.No wind75%29.89 "Hg10 mi
2:53 AM57 °FClear.6 mph72%29.89 "Hg10 mi
1:53 AM57 °FClear.12 mph74%29.88 "Hg10 mi
12:53 AM58 °FClear.6 mph70%29.88 "Hg10 mi
11:53 PM
Sun, May 3
59 °FClear.8 mph67%29.87 "Hg10 mi
10:53 PM60 °FClear.5 mph67%29.85 "Hg10 mi
9:53 PM61 °FClear.5 mph65%29.85 "Hg10 mi
8:53 PM63 °FClear.5 mph60%29.82 "Hg10 mi
7:53 PM64 °FSunny.6 mph58%29.80 "Hg10 mi
6:53 PM67 °FSunny.7 mph55%29.80 "Hg10 mi
5:53 PM70 °FSunny.6 mph51%29.81 "Hg10 mi
4:53 PM69 °FSunny.8 mph53%29.82 "Hg10 mi
3:53 PM70 °FSunny.12 mph51%29.82 "Hg10 mi
2:53 PM71 °FSunny.13 mph51%29.84 "Hg10 mi
Weather by CustomWeather, © 2015

See weather overviewHow to use our weather pages